This is the latest recevied weather packets stored in our database for station/object N9GKE-1. If no packets are shown the sender has not sent any weather packets the latest 10 day(s).
| Time | Temp. | Humidity | Pressure | Rain* | Wind** | Luminosity | Snow |
|---|---|---|---|---|---|---|---|
| 1777993152 | 11.67° C | 69% | 1008.6 hPa | 12.7 mm | - | - | - |
| 1777992694 | 11.67° C | 69% | 1008.5 hPa | 0 mm | - | - | - |
| 1777992550 | 11.67° C | 70% | 1008.6 hPa | 0 mm | - | - | - |
| 1777992093 | 12.22° C | 70% | 1008.6 hPa | 0 mm | - | - | - |
| 1777991494 | 12.22° C | 70% | 1008.4 hPa | 0 mm | - | - | - |
| 1777991349 | 12.22° C | 71% | 1008.5 hPa | 0 mm | - | - | - |
| 1777990894 | 12.22° C | 72% | 1008.4 hPa | 0 mm | - | - | - |
| 1777990751 | 12.22° C | 72% | 1008.4 hPa | 0 mm | - | - | - |
| 1777989694 | 12.22° C | 79% | 1008 hPa | 0 mm | - | - | - |
| 1777989550 | 12.22° C | 79% | 1008 hPa | 0 mm | - | - | - |
| 1777989094 | 12.22° C | 77% | 1007.9 hPa | 0 mm | - | - | - |
| 1777988951 | 12.22° C | 78% | 1007.9 hPa | 0 mm | - | - | - |
| 1777988494 | 12.22° C | 78% | 1008.2 hPa | 0 mm | - | - | - |
| 1777987896 | 12.78° C | 82% | 1008.3 hPa | 0 mm | - | - | - |
| 1777987749 | 12.78° C | 83% | 1008.3 hPa | 0 mm | - | - | - |
| 1777987293 | 12.78° C | 89% | 1008.2 hPa | 0 mm | - | - | - |
| 1777987150 | 13.33° C | 91% | 1008.2 hPa | 0 mm | - | - | - |
| 1777986693 | 13.33° C | 92% | 1008 hPa | 0 mm | - | - | - |
| 1777986549 | 13.33° C | 92% | 1008.1 hPa | 0 mm | - | - | - |
| 1777986179 | 13.33° C | 92% | 1008 hPa | 0 mm | - | - | - |
| 1777985954 | 13.33° C | 93% | 1007.8 hPa | 0 mm | - | - | - |
| 1777985577 | 13.33° C | 93% | 1007.4 hPa | 0 mm | - | - | - |
| 1777985349 | 13.33° C | 93% | 1007.3 hPa | 0 mm | - | - | - |
| 1777984978 | 13.33° C | 93% | 1006.9 hPa | 0 mm | - | - | - |
| 1777984749 | 13.33° C | 94% | 1006.7 hPa | 0 mm | - | - | - |
* Rain latest hour (hover to see other rain measurements)
** Current wind speed in m/s (hover to see current wind gust speed)